STARLINK-32797, 62843

Orbit data source: Space-Track

STARLINK-32797, 62843 is a payload satellite owned by SpaceX/Seattle (US) in LEO that was launched on Mon, 27 Jan 2025 UTC via an FALCON 9 launch vehicle from the Air Force Eastern Test Range (AFETR). Payload-class satellites include a variety of spacecraft equipped with specific instruments for various scientific and technological missions. These include communications satellites like Starlink; space stations such as the ISS; scientific satellites like the Hubble; Earth observation satellites from companies like Planet Labs, Umbra, and HawkEye 360; GPS; miniature CubeSats for education and research; and military/defense satellites.

Loading next visibility...
Identifier
62843, 2025-019Q
Orbit
LEO
Last TLE update
22 hours ago
Origin
Manufacturer
SpaceX/Seattle
Mission
Operational Commercial Communications
Bus & Motor
STARLINK V2M, Unknown motor
Mass
730 kg wet, ~700 kg dry
Launch date (UTC)
2025-01-27 (5 months ago)
Launch vehicle
FALCON 9
Launch site
Air Force Eastern Test Range (AFETR)
Object type
Payload
Rocket body
Debris
Shape & HBR
Box + 2 Pan, 29 m
Radar Cross Section
33.884 m², Large (>1 m²)

Expand to show TLE details & history

TLE from 22 hours ago
0 STARLINK-32797
1 62843U 25019Q   25182.94535836  .00019896  00000-0  73029-3 0  9998
2 62843  42.9982  64.9808 0000973 287.0062  73.0683 15.27593534 24869
Epoch: 2025-07-01T22:41Z
TLE epoch observation values (Epoch: 2025-07-01T22:41:18.962Z)
Latitude
-0.00001°
Longitude
164.41825°
Altitude
482.589 km
Speed
7.626 km/s
True Right ascension
04h 19m 55s
True Declination
0° 00' 00"
Sunlit
Object was in daylight at epoch
Visualization orbit readout
Latitude
-43.00592°
Longitude
75.20561°
Altitude
495.554 km
Speed
7.618 km/s
Apparent Right ascension
21h 13m 03s
Apparent Declination
-42° 43' 30"
Sunlit
Object is in full shadow
Visualization observer readout
Local Sidereal Time
08:01:03
Azimuth
252.386° W
Elevation
-76.22°
Doppler factor
1
Orbital elements
Apogee altitude
485.622 km
Perigee altitude
484.286 km
Semi-major axis
6,863.091 km
Eccentricity
0.0001
Inclination
42.9982°
RAAN
64.9808°
Arg. of periapsis
287.0062°
True anomaly
Unknown
Mean anomaly
73.0683°
Eccentric anomaly
Unknown
Mean motion
3.81736 °/min
Orbital period
94.31 mins
BSTAR
0.00073029
Loading maneuver chart data...
Loading SW <> Apogee altitude chart data...
Loading historical data...
Loading historical data...
Loading historical data...
Loading historical data...
Loading historical data...
Loading historical data...
Loading historical data...

STARLINK-32797 Visibility forecast

Observer location: undefined°, undefined°

Span
Click to sort rows by Start time (UTC) header in descending order
Start Az.
Max El. time (UTC)
Max El. Az.
Max El.
End time (UTC)
End Az.
6 mins2025-07-02 20:56:02.663Z263.477° W2025-07-02 20:59:02.663Z323.425° NNW42.712°2025-07-02 21:02:02.663Z68.642° E
6 mins2025-07-02 22:36:02.663Z292.938° NW2025-07-02 22:38:02.663Z339.493° N37.559°2025-07-02 22:42:02.663Z82.716° E
6 mins2025-07-03 00:15:02.663Z283.416° WNW2025-07-03 00:17:02.663Z253.297° W41.581°2025-07-03 00:21:02.663Z118.184° SE
4 mins2025-07-03 18:51:02.663Z195.989° SSW2025-07-03 18:53:02.663Z133.441° SE28.788°2025-07-03 18:55:02.663Z91.427° ESE
|